MUOS-4

Last updated on Sat Apr 13 2024 01:02:38 GMT+0100 (British Summer Time)

1 40887U 15044A 24103.53577840 -.00000100 00000+0 00000+0 0 9990 2 40887 3.0235 30.5467 0058870 358.7501 79.7573 1.00271748 31589
UTC large
Height (km)
Speed (km/s)
/
Latitude / Longitude
Inclination (degrees)
Orbital Period (minutes)
Azimuth
Elevation
Range (km)
Doppler Factor

Next 0 passes for location: London (51.5072 / 0.1276)

Sorry there are no passes over London.